[[{"header":{"parameterUnit":"m.s-1","parameterCategory":2,"la1":30.2991,"la2":30.254,"lo1":-89.0895,"lo2":-89.0444,"dy":0.0017,"dx":0.0017,"nx":28,"ny":28,"refTime":"2023-04-28T21:00:00:Z","depth":"0","parameterNumber":2,"parameterNumberName":"U-component_of_CURRENTS"},"data":[0,0,0,0,0,0,0,0,0,0,0,0,0,0,0,0,0,0,0,0,0,0,0,0,0,0,0,0,0,0,0,0,0,0,0,0,0,0,0,0,0,0,0,0,0,0,0,0,0,0,0,0,0,0,0,0,0,0,0.0187,0.0186,0,0.0189,0.019,0.0191,0.026,0.0261,0.0261,0.0261,0.0464,0.0469,0.0474,0,0,0,0,0,0,0,0,0,0,0,0,0,0.0105,0.0109,0.0187,0.0186,0.0184,0.0189,0.019,0.0192,0.026,0.0261,0.0261,0.0261,0.0462,0.0468,0.0474,0,0,0,0,0,0,0,0,0,0,0,0,0,0.0143,0.011,0.0187,0.0207,0.0208,0.0188,0.019,0.0192,0.026,0.0261,0.0261,0.0262,0.046,0.0468,0.0475,0.0513,0,0,0.0498,0.0502,0,0,0,0,0,0,0,0,0.0141,0.0148,0.0206,0.0206,0.0206,0.0211,0.0234,0.0304,0.026,0.0257,0.0261,0.0262,0.0387,0.0401,0.042,0.0522,0.0531,0.0499,0.0504,0.0507,0.0509,0,0,0,0,0,0,0,0.0139,0.0147,0.0204,0.0204,0.0204,0.0167,0.0176,0.0248,0.0336,0.0258,0.0259,0.0233,0.0391,0.0412,0.0425,0.0534,0.0499,0.0506,0.051,0.0513,0.0615,0.0613,0,0,0,0,0,0,0.0113,0.0146,0.0204,0.0203,0.0156,0.0168,0.0178,0.0222,0.0331,0.0341,0.0232,0.0236,0.0399,0.0416,0.0433,0.0451,0.0507,0.0514,0.0519,0.0616,0.0614,0.0612,0,0,0,0,0,0,0.0113,0.0122,0.0203,0.0156,0.0162,0.0168,0.0216,0.0221,0.0246,0.0306,0.0325,0.0249,0.04,0.0422,0.0489,0.0461,0.0518,0.0525,0.0619,0.0616,0.0613,0.0509,0,0,0,0,0,0,0.0112,0.0124,0.0102,0.0158,0.0164,0.0204,0.0214,0.022,0.0221,0.0226,0.0327,0.0346,0.0402,0.0477,0.0497,0.0472,0.0531,0.0621,0.0617,0.0614,0.0515,0.0503,0.0493,0,0,0,0,0,0.0111,0.0098,0.0104,0.0106,0.0153,0.0202,0.0205,0.0217,0.0221,0.0242,0.0291,0.0343,0.0467,0.0483,0.0506,0.0483,0.0623,0.0618,0.0614,0.052,0.0505,0.0493,0,0,0,0,0,0,0.0047,0.0104,0.0112,0.0116,0.0153,0.0208,0.0183,0.0215,0.0269,0.0266,0.0346,0.0369,0.0409,0.0459,0.0474,0.0495,0.0543,0.0543,0.0463,0.045,0.0439,0.0405,0.0537,0,0,0,0,0,0.002,0.0031,0.009,0.0085,0.0102,0.0145,0.0145,0.018,0.0235,0.0258,0.0325,0.0374,0.0407,0.0441,0.0492,0.0526,0.0516,0.0514,0.0503,0.0493,0.0477,0.0422,0.0404,0.0598,0.0598,0.0598,0,0,-0.0009,0.001,0.0017,0.0068,0.0091,0.0115,0.0154,0.0174,0.0185,0.0273,0.0307,0.0354,0.0407,0.0431,0.0451,0.0474,0.043,0.0488,0.048,0.0468,0.0415,0.0396,0.0379,0.0595,0.0596,0.0596,0,0,-0.0053,-0.0032,-0.003,0.0005,0.0029,0.0065,0.0075,0.0149,0.017,0.0219,0.0252,0.0277,0.0368,0.0376,0.0393,0.0353,0.0375,0.0365,0.0289,0.0235,0.0219,0.0204,0.0153,0.0135,0.0358,0.0357,0.0357,0,-0.0104,-0.0075,-0.0028,-0.0015,-0.0009,0.0047,0.0068,0.0092,0.0174,0.0182,0.0219,0.0275,0.0329,0.0311,0.0285,0.0328,0.0299,0.034,0.0219,0.0205,0.0191,0.0143,0.0124,0.0352,0.0353,0.0353,0.0354,0,-0.0111,-0.0114,-0.011,-0.0068,-0.0047,-0.0022,0.0028,0.0048,0.0079,0.0108,0.0121,0.0176,0.0207,0.021,0.0242,0.0165,0.0175,0.0212,0.0251,0.0165,0.012,0.0102,0.0344,0.0346,0.0348,0.0349,0,0,-0.0149,-0.0119,-0.0126,-0.0123,-0.0066,-0.004,-0.0038,-0.0008,-0.0024,0.003,0.0013,0.0041,0.0067,0.0082,0.011,0.0056,-0.0063,0.0082,0.0082,0.0027,-0.0198,-0.011,-0.0121,-0.0054,-0.0057,-0.006,-0.0196,0,-0.0171,-0.0174,-0.0141,-0.0148,-0.0133,-0.0088,-0.009,-0.0067,-0.0045,-0.0048,-0.0035,-0.0026,0.0016,0.0021,-0.0031,-0.0038,-0.0114,-0.003,-0.0102,-0.0104,-0.002,-0.014,0.002,-0.008,-0.0213,-0.0216,-0.0218,0,-0.0179,-0.0188,-0.0188,-0.0185,-0.0172,-0.0168,-0.0165,-0.0154,-0.0158,-0.014,-0.0145,-0.0118,-0.0168,-0.0126,-0.0222,-0.0172,-0.021,-0.023,-0.0234,-0.0129,-0.0051,-0.0013,-0.0107,0.0029,-0.0245,-0.0243,-0.0241,0,-0.022,-0.0222,-0.0233,-0.0222,-0.0201,-0.0207,-0.0197,-0.0187,-0.0188,-0.0205,-0.0209,-0.0243,-0.0252,-0.0314,-0.0313,-0.0292,-0.0425,-0.0388,-0.036,-0.0354,-0.0218,-0.0193,-0.0189,-0.0508,-0.0507,-0.0507,-0.0507,0,-0.0242,-0.0258,-0.0262,-0.0264,-0.0287,-0.0249,-0.0273,-0.0265,-0.0269,-0.0274,-0.0263,-0.0276,-0.0307,-0.0348,-0.0373,-0.0407,-0.047,-0.041,-0.0396,-0.0248,-0.0226,-0.0097,-0.0029,-0.0512,-0.0511,-0.051,-0.0509,0,-0.0264,-0.0269,-0.0289,-0.0296,-0.0301,-0.0314,-0.0309,-0.0331,-0.0321,-0.0334,-0.0339,-0.0338,-0.0369,-0.0393,-0.0478,-0.0465,-0.0454,-0.0515,-0.0331,-0.0293,-0.0121,-0.0064,-0.0204,-0.0217,-0.0531,-0.053,-0.0529,0,-0.0261,-0.0276,-0.0314,-0.034,-0.0344,-0.0361,-0.0374,-0.036,-0.0368,-0.0353,-0.0364,-0.0387,-0.0363,-0.0435,-0.041,-0.0448,-0.0426,-0.035,-0.028,-0.012,-0.0049,-0.013,-0.0138,-0.0157,-0.0153,-0.015,-0.0147,0,-0.0258,-0.0285,-0.0309,-0.0367,-0.0398,-0.0419,-0.0429,-0.0433,-0.0402,-0.0392,-0.0357,-0.0334,-0.0332,-0.0252,-0.0275,-0.0277,-0.0235,-0.0285,-0.0174,0.0187,0.0149,0.0151,-0.006,-0.0118,-0.0121,-0.0123,-0.0125,-0.0126,-0.0261,-0.0289,-0.0338,-0.0383,-0.0426,-0.0446,-0.0431,-0.0428,-0.0401,-0.0322,-0.0322,-0.0213,-0.0075,-0.0048,-0.0066,0.0104,-0.0063,0.0181,0.021,0.0089,0.0156,0.0008,0.0014,0.0012,0.0011,0.0009,0.0008,0,-0.0251,-0.0295,-0.0346,-0.0398,-0.0426,-0.0446,-0.0442,-0.0396,-0.0325,-0.0244,-0.0167,0.0085,0.0237,0.0327,0.0537,0.0628,0.0509,0.0663,0.0627,0.057,0.0429,0.0538,0.0727,0.0727,0.0727,0.0727,0.0727,0.0727,-0.0261,-0.0306,-0.0332,-0.0371,-0.0397,-0.0382,-0.0356,-0.0289,-0.0207,-0.0007,0.0168,0.0283,0.055,0.092,0.1145,0.1127,0.1055,0.1049,0.0918,0.0964,0.0922,0.0882,0.1001,0.1284,0.1284,0.1045,0.1045,0.1045]},{"header":{"parameterUnit":"m.s-1","parameterCategory":2,"la1":30.2991,"la2":30.254,"lo1":-89.0895,"lo2":-89.0444,"dy":0.0017,"dx":0.0017,"nx":28,"ny":28,"refTime":"2023-04-28T21:00:00:Z","depth":"0","parameterNumber":3,"parameterNumberName":"V-component_of_CURRENTS"},"data":[0,0,0,0,0,0,0,0,0,0,0,0,0,0,0,0,0,0,0,0,0,0,0,0,0,0,0,0,0,0,0,0,0,0,0,0,0,0,0,0,0,0,0,0,0,0,0,0,0,0,0,0,0,0,0,0,0,0,-0.02,-0.0198,0,-0.0109,-0.0109,-0.0109,-0.0128,-0.0129,-0.013,-0.013,-0.0104,-0.0103,-0.0101,0,0,0,0,0,0,0,0,0,0,0,0,0,-0.0327,-0.0325,-0.02,-0.0198,-0.0196,-0.0109,-0.0109,-0.0109,-0.0128,-0.0129,-0.013,-0.0131,-0.0105,-0.0103,-0.0101,0,0,0,0,0,0,0,0,0,0,0,0,0,-0.0266,-0.0325,-0.02,-0.0188,-0.0186,-0.0109,-0.0109,-0.0108,-0.0127,-0.0129,-0.013,-0.0131,-0.0105,-0.0103,-0.0101,-0.0061,0,0,-0.0094,-0.0093,0,0,0,0,0,0,0,0,-0.027,-0.0263,-0.0192,-0.0189,-0.0186,-0.0123,-0.0143,-0.0093,-0.0127,-0.0159,-0.013,-0.0132,-0.011,-0.0107,-0.0099,-0.006,-0.0059,-0.0094,-0.0092,-0.0091,-0.0091,0,0,0,0,0,0,0,-0.0274,-0.0266,-0.0173,-0.019,-0.0186,-0.0165,-0.016,-0.0134,-0.0136,-0.0156,-0.0155,-0.0131,-0.011,-0.0101,-0.0099,-0.0058,-0.0094,-0.0092,-0.009,-0.009,0.0012,0.0013,0,0,0,0,0,0,-0.0269,-0.027,-0.0176,-0.0169,-0.0222,-0.0162,-0.0156,-0.0149,-0.0135,-0.0131,-0.013,-0.0132,-0.0104,-0.0101,-0.0098,-0.0076,-0.0091,-0.0089,-0.0088,0.0011,0.0012,0.0014,0,0,0,0,0,0,-0.0272,-0.0262,-0.0179,-0.021,-0.0197,-0.0158,-0.015,-0.0147,-0.0128,-0.0112,-0.0112,-0.0113,-0.0105,-0.0101,-0.0077,-0.0074,-0.0088,-0.0086,0.0009,0.0011,0.0013,-0.0015,0,0,0,0,0,0,-0.0277,-0.0264,-0.0236,-0.021,-0.0194,-0.0133,-0.0148,-0.0144,-0.0107,-0.0109,-0.0097,-0.0097,-0.0106,-0.0081,-0.0075,-0.0071,-0.0084,0.0007,0.001,0.0012,-0.0016,-0.0014,-0.0013,0,0,0,0,0,-0.0282,-0.0248,-0.0236,-0.0222,-0.0165,-0.0131,-0.0122,-0.0104,-0.0104,-0.0094,-0.0091,-0.0097,-0.0061,-0.0078,-0.0071,-0.0067,0.0006,0.0009,0.0012,-0.0016,-0.0014,-0.0013,0,0,0,0,0,0,-0.0286,-0.0245,-0.0232,-0.0186,-0.0156,-0.0131,-0.0096,-0.009,-0.0076,-0.0084,-0.008,-0.0079,-0.0057,-0.0044,-0.0063,-0.0026,-0.0027,-0.0022,-0.005,-0.0048,-0.0047,-0.0052,-0.0083,0,0,0,0,0,-0.0271,-0.0231,-0.0203,-0.0156,-0.0144,-0.0116,-0.0089,-0.0094,-0.0078,-0.0074,-0.0056,-0.0044,-0.0037,-0.0031,-0.0016,0.001,0.0005,0.0021,0.0023,0.0023,0.0027,0.0015,0.0014,0.0024,0.0024,0.0024,0,0,-0.0264,-0.022,-0.0204,-0.0151,-0.0125,-0.0103,-0.0107,-0.0079,-0.0067,-0.0071,-0.0036,-0.0034,-0.0026,-0.0013,-0.0001,-0.0005,0.002,0.0027,0.0027,0.003,0.0018,0.0016,0.0015,0.0026,0.0025,0.0025,0,0,-0.0221,-0.019,-0.015,-0.0127,-0.0081,-0.0075,-0.0065,-0.0042,-0.0041,-0.0011,-0.0021,-0.0011,0.0026,0.0016,0.0016,0.0047,0.003,0.0056,0.0052,0.004,0.0038,0.0036,0.0024,0.0021,0.0053,0.0053,0.0053,0,-0.0206,-0.0155,-0.0131,-0.0089,-0.0068,-0.0063,-0.0046,-0.0035,-0.0006,-0.0012,-0.0002,0.0022,0.0037,0.0025,0.0032,0.0048,0.0034,0.0035,0.0037,0.0036,0.0034,0.0022,0.0019,0.0052,0.0052,0.0052,0.0052,0,-0.0152,-0.0107,-0.008,-0.0032,-0.0015,0.0004,0.0005,0.0015,0.0023,0.0022,0.0024,0.0035,0.0041,0.005,0.0051,0.0045,0.0036,0.0037,0.0021,0.0031,0.0018,0.0016,0.005,0.0051,0.0051,0.0051,0,0,-0.0146,-0.0061,-0.0052,-0.0028,0.0004,0.0015,0.0026,0.0024,0.0013,0.0036,0.0027,0.0047,0.0036,0.0039,0.0034,0.0031,0.0017,0.003,0.0029,-0.0003,-0.0021,-0.0067,-0.0074,0.0003,0.0003,0.0002,-0.0029,0,-0.0111,-0.003,-0.0008,0.0037,0.0062,0.0051,0.0057,0.0046,0.0038,0.0033,0.002,0.0018,0.0034,0.0023,0.0022,0.0019,0.0011,0.0025,-0.0006,-0.0006,-0.0067,-0.0078,-0.0071,-0.0102,-0.0031,-0.0032,-0.0032,0,-0.0075,-0.0023,0.0029,0.0058,0.006,0.0072,0.0047,0.005,0.0022,0.0011,-0.0007,-0.0016,-0.0019,-0.0003,-0.0015,-0.0013,-0.0013,-0.0013,-0.0015,-0.0049,-0.0057,-0.0096,-0.0109,-0.0108,-0.0036,-0.0035,-0.0035,0,-0.0078,-0.0009,0.0034,0.0048,0.0079,0.0073,0.0069,0.0039,0.002,-0.0007,-0.0027,-0.0042,-0.0049,-0.0051,-0.0048,-0.0035,-0.0068,-0.005,-0.0095,-0.0098,-0.0091,-0.0094,-0.0123,-0.0059,-0.0059,-0.0058,-0.0058,0,-0.0049,-0.0018,0.0035,0.0059,0.0057,0.0071,0.0047,0.0031,0.0001,-0.0027,-0.004,-0.0067,-0.0062,-0.0083,-0.007,-0.0102,-0.0088,-0.0101,-0.0113,-0.01,-0.0103,-0.01,-0.0148,-0.006,-0.0059,-0.0059,-0.0059,0,-0.005,-0.0001,0.0037,0.0068,0.0067,0.0059,0.0036,0.001,-0.0011,-0.0046,-0.0055,-0.0087,-0.0116,-0.0128,-0.0136,-0.014,-0.0155,-0.017,-0.0159,-0.017,-0.0208,-0.0259,-0.0336,-0.0203,-0.0219,-0.022,-0.0221,0,-0.0039,-0.0007,0.003,0.0029,0.0044,0.0035,0.0013,-0.0001,-0.0024,-0.006,-0.0079,-0.0121,-0.0148,-0.0199,-0.0228,-0.0251,-0.0211,-0.0255,-0.0221,-0.0221,-0.0286,-0.0293,-0.0171,-0.0217,-0.0218,-0.0219,-0.022,0,-0.004,-0.0022,0.0,0.0006,-0.0003,-0.0012,-0.0029,-0.0043,-0.006,-0.0078,-0.0104,-0.0124,-0.0197,-0.0229,-0.0287,-0.0296,-0.0244,-0.0275,-0.027,-0.0295,-0.031,-0.0183,-0.0185,-0.0228,-0.0227,-0.0226,-0.0226,-0.0226,-0.0065,-0.0062,-0.0035,-0.0035,-0.0043,-0.0052,-0.0053,-0.0068,-0.0084,-0.0091,-0.0114,-0.0119,-0.0178,-0.0267,-0.0303,-0.0351,-0.0322,-0.0326,-0.0389,-0.0394,-0.0272,-0.0304,-0.0368,-0.0368,-0.0368,-0.0368,-0.0368,0,-0.0107,-0.009,-0.0085,-0.0076,-0.0079,-0.0072,-0.0079,-0.0065,-0.0064,-0.0075,-0.0082,-0.0077,-0.0179,-0.0235,-0.034,-0.041,-0.0331,-0.0448,-0.0425,-0.0281,-0.0308,-0.0309,-0.0369,-0.0369,-0.0369,-0.0369,-0.0369,-0.0369,-0.0127,-0.0127,-0.0111,-0.0108,-0.0097,-0.0075,-0.0064,-0.0042,-0.0029,0.0016,0.0053,0.0057,0.0084,-0.0266,-0.0434,-0.0483,-0.0398,-0.0562,-0.0424,-0.0465,-0.0456,-0.0447,-0.0452,-0.0542,-0.0542,-0.0265,-0.0264,-0.0264]}],[{"header":{"parameterUnit":"m.s-1","parameterCategory":2,"la1":30.2991,"la2":30.254,"lo1":-89.0895,"lo2":-89.0444,"dy":0.0017,"dx":0.0017,"nx":28,"ny":28,"refTime":"2023-04-28T21:00:00:Z","depth":"2","parameterNumber":2,"parameterNumberName":"U-component_of_CURRENTS"},"data":[0,0,0,0,0,0,0,0,0,0,0,0,0,0,0,0,0,0,0,0,0,0,0,0,0,0,0,0,0,0,0,0,0,0,0,0,0,0,0,0,0,0,0,0,0,0,0,0,0,0,0,0,0,0,0,0,0,0,0.0022,0.002,0,0.0003,0.0005,0.0006,0.009,0.0091,0.0091,0.0092,0.0303,0.0308,0.0313,0,0,0,0,0,0,0,0,0,0,0,0,0,-0.0045,-0.0041,0.0022,0.002,0.0018,0.0003,0.0005,0.0006,0.009,0.0091,0.0091,0.0092,0.0301,0.0307,0.0314,0,0,0,0,0,0,0,0,0,0,0,0,0,-0.0014,-0.004,0.0023,0.0042,0.0042,0.0002,0.0005,0.0007,0.009,0.0091,0.0092,0.0092,0.0299,0.0307,0.0314,0.0348,0,0,0.0338,0.0342,0,0,0,0,0,0,0,0,-0.0016,-0.0009,0.0041,0.004,0.004,0.0031,0.0057,0.0125,0.009,0.0095,0.0092,0.0093,0.0219,0.0233,0.0255,0.0357,0.0367,0.0339,0.0344,0.0347,0.0349,0,0,0,0,0,0,0,-0.0017,-0.0009,0.0037,0.0038,0.0037,-0.0011,-0.0001,0.007,0.0174,0.0094,0.0095,0.0058,0.0223,0.0248,0.0261,0.037,0.0339,0.0346,0.035,0.0353,0.0444,0.0442,0,0,0,0,0,0,-0.0049,-0.0009,0.0037,0.0034,-0.0011,-0.0011,0.0,0.0051,0.0168,0.0178,0.0058,0.0062,0.0234,0.0252,0.0269,0.0289,0.0347,0.0354,0.0359,0.0447,0.0444,0.0441,0,0,0,0,0,0,-0.0049,-0.0041,0.0037,-0.0012,-0.0008,-0.0011,0.0045,0.0049,0.0083,0.0133,0.0153,0.0084,0.0235,0.0258,0.0328,0.0299,0.0358,0.0365,0.0449,0.0446,0.0443,0.0346,0,0,0,0,0,0,-0.0049,-0.0038,-0.0059,-0.001,-0.0007,0.0036,0.0041,0.0048,0.0048,0.0055,0.0163,0.0182,0.0238,0.0316,0.0336,0.0311,0.0371,0.0452,0.0448,0.0444,0.0352,0.034,0.0329,0,0,0,0,0,-0.0049,-0.006,-0.0057,-0.0057,-0.0014,0.0035,0.0037,0.0046,0.0048,0.008,0.0126,0.0179,0.0302,0.0322,0.0345,0.0322,0.0454,0.0449,0.0444,0.0357,0.0342,0.0329,0,0,0,0,0,0,-0.0103,-0.0053,-0.0048,-0.0044,-0.0008,0.0041,0.0018,0.0047,0.0107,0.0107,0.0183,0.0206,0.0249,0.0295,0.0315,0.0327,0.0374,0.0374,0.03,0.0287,0.0275,0.025,0.0377,0,0,0,0,0,-0.013,-0.0116,-0.0064,-0.0069,-0.005,-0.0011,-0.0014,0.0021,0.0076,0.0103,0.0172,0.0216,0.0242,0.0275,0.0326,0.0356,0.0349,0.0342,0.033,0.0321,0.0311,0.026,0.0244,0.0425,0.0425,0.0425,0,0,-0.0158,-0.0143,-0.0136,-0.0085,-0.006,-0.0034,-0.0,0.0024,0.0031,0.0117,0.0157,0.0201,0.0243,0.0264,0.0283,0.0304,0.026,0.0314,0.0306,0.0301,0.0253,0.0236,0.022,0.0422,0.0422,0.0423,0,0,-0.0198,-0.0173,-0.0167,-0.0131,-0.0111,-0.0076,-0.0063,0.0013,0.0035,0.0082,0.0109,0.0133,0.0217,0.0218,0.0226,0.0183,0.0207,0.019,0.0117,0.0068,0.0053,0.0039,-0.0013,-0.0031,0.0178,0.0178,0.0177,0,-0.0248,-0.0214,-0.0165,-0.0148,-0.0146,-0.0088,-0.0063,-0.0041,0.0041,0.0047,0.0087,0.0132,0.0182,0.015,0.0121,0.0159,0.0131,0.0171,0.0053,0.0039,0.0027,-0.0023,-0.0041,0.0172,0.0173,0.0173,0.0174,0,-0.0251,-0.0248,-0.0239,-0.0193,-0.017,-0.0139,-0.0095,-0.0068,-0.004,-0.0016,-0.0005,0.0044,0.0068,0.0064,0.0085,0.0007,0.0013,0.0049,0.0089,0.0003,-0.0044,-0.0061,0.0165,0.0167,0.0168,0.0169,0,0,-0.0286,-0.0248,-0.0252,-0.0248,-0.0184,-0.0156,-0.0154,-0.0125,-0.0144,-0.0087,-0.0107,-0.0091,-0.0063,-0.0057,-0.004,-0.0093,-0.0207,-0.0071,-0.0072,-0.0122,-0.0335,-0.0248,-0.0257,-0.0197,-0.02,-0.0203,-0.0341,0,-0.0305,-0.03,-0.0267,-0.0265,-0.0244,-0.0198,-0.0202,-0.0181,-0.016,-0.0163,-0.0158,-0.0152,-0.0116,-0.0113,-0.0165,-0.018,-0.0253,-0.0174,-0.0245,-0.0248,-0.0158,-0.0274,-0.0228,-0.034,-0.0357,-0.036,-0.0362,0,-0.0309,-0.0314,-0.0306,-0.0299,-0.0284,-0.0277,-0.0271,-0.0263,-0.0269,-0.0251,-0.0256,-0.0233,-0.0289,-0.0246,-0.0345,-0.0299,-0.0338,-0.0361,-0.0366,-0.0258,-0.0191,-0.0253,-0.0369,-0.039,-0.0387,-0.0385,-0.0384,0,-0.0348,-0.0342,-0.0349,-0.0336,-0.031,-0.0314,-0.0302,-0.0292,-0.0296,-0.0312,-0.0313,-0.0351,-0.0362,-0.0423,-0.043,-0.0411,-0.0542,-0.051,-0.0482,-0.0476,-0.0436,-0.042,-0.062,-0.062,-0.062,-0.062,-0.0619,0,-0.0365,-0.0376,-0.0376,-0.0375,-0.0395,-0.0355,-0.0375,-0.0365,-0.0369,-0.0374,-0.0365,-0.0378,-0.0411,-0.0455,-0.0485,-0.0521,-0.0582,-0.0525,-0.0515,-0.0468,-0.0454,-0.0479,-0.0461,-0.0625,-0.0624,-0.0623,-0.0622,0,-0.0384,-0.0385,-0.04,-0.0403,-0.0406,-0.0416,-0.0408,-0.0428,-0.0417,-0.0428,-0.0432,-0.0435,-0.0469,-0.0496,-0.0583,-0.0573,-0.0623,-0.0626,-0.056,-0.0538,-0.0526,-0.0512,-0.0645,-0.0643,-0.0642,-0.0641,-0.0639,0,-0.0378,-0.0389,-0.0422,-0.0445,-0.0445,-0.0459,-0.0468,-0.0453,-0.046,-0.0446,-0.0457,-0.0481,-0.0464,-0.0541,-0.0545,-0.0594,-0.0611,-0.0577,-0.0522,-0.0557,-0.0535,-0.0522,-0.051,-0.0535,-0.0533,-0.0531,-0.053,0,-0.0373,-0.0397,-0.0419,-0.0467,-0.0494,-0.0512,-0.0517,-0.0521,-0.0489,-0.0487,-0.0459,-0.0442,-0.0465,-0.0453,-0.0484,-0.0508,-0.0556,-0.0545,-0.0642,-0.0497,-0.0454,-0.0429,-0.0422,-0.0517,-0.0518,-0.0519,-0.052,-0.0521,-0.0376,-0.0401,-0.0444,-0.0481,-0.0518,-0.0533,-0.0516,-0.0526,-0.0507,-0.0462,-0.0475,-0.0429,-0.0444,-0.044,-0.0421,-0.0402,-0.0466,-0.0468,-0.0474,-0.0481,-0.0405,-0.0357,-0.0391,-0.0391,-0.0392,-0.0392,-0.0392,0,-0.0367,-0.0404,-0.0449,-0.0492,-0.0516,-0.053,-0.0522,-0.0495,-0.045,-0.0431,-0.0412,-0.0395,-0.0376,-0.0353,-0.0292,-0.0288,-0.0299,-0.0277,-0.0299,-0.0313,-0.0326,-0.0241,-0.0185,-0.0184,-0.0183,-0.0182,0,0,-0.0378,-0.0419,-0.0441,-0.0469,-0.0485,-0.047,-0.0442,-0.0417,-0.0384,-0.0344,-0.031,-0.0394,-0.0352,-0.0286,-0.0275,-0.0191,-0.0243,-0.0178,-0.0353,-0.0394,-0.0405,-0.0455,-0.0343,0,0,0,0,0]},{"header":{"parameterUnit":"m.s-1","parameterCategory":2,"la1":30.2991,"la2":30.254,"lo1":-89.0895,"lo2":-89.0444,"dy":0.0017,"dx":0.0017,"nx":28,"ny":28,"refTime":"2023-04-28T21:00:00:Z","depth":"2","parameterNumber":3,"parameterNumberName":"V-component_of_CURRENTS"},"data":[0,0,0,0,0,0,0,0,0,0,0,0,0,0,0,0,0,0,0,0,0,0,0,0,0,0,0,0,0,0,0,0,0,0,0,0,0,0,0,0,0,0,0,0,0,0,0,0,0,0,0,0,0,0,0,0,0,0,-0.0124,-0.0122,0,-0.0017,-0.0017,-0.0016,-0.0028,-0.0029,-0.0029,-0.003,-0.0014,-0.0013,-0.0012,0,0,0,0,0,0,0,0,0,0,0,0,0,-0.0253,-0.0252,-0.0124,-0.0122,-0.012,-0.0017,-0.0017,-0.0016,-0.0028,-0.0029,-0.003,-0.0031,-0.0014,-0.0013,-0.0011,0,0,0,0,0,0,0,0,0,0,0,0,0,-0.0186,-0.0252,-0.0125,-0.0106,-0.0103,-0.0018,-0.0017,-0.0016,-0.0027,-0.0029,-0.003,-0.0031,-0.0015,-0.0013,-0.0011,0.0025,0,0,-0.0006,-0.0005,0,0,0,0,0,0,0,0,-0.019,-0.0183,-0.0111,-0.0107,-0.0103,-0.0029,-0.0056,-0.0004,-0.0027,-0.0066,-0.003,-0.0032,-0.002,-0.0018,-0.0007,0.0025,0.0026,-0.0006,-0.0005,-0.0004,-0.0003,0,0,0,0,0,0,0,-0.0195,-0.0187,-0.0091,-0.0108,-0.0103,-0.0073,-0.0067,-0.0046,-0.0047,-0.0063,-0.0061,-0.0034,-0.002,-0.0009,-0.0007,0.0026,-0.0006,-0.0004,-0.0003,-0.0002,0.0094,0.0095,0,0,0,0,0,0,-0.0192,-0.0191,-0.0095,-0.0087,-0.014,-0.007,-0.0063,-0.0059,-0.0045,-0.004,-0.0033,-0.0034,-0.0011,-0.0009,-0.0007,0.001,-0.0004,-0.0002,-0.0001,0.0092,0.0094,0.0096,0,0,0,0,0,0,-0.0196,-0.0185,-0.0099,-0.0128,-0.0114,-0.0066,-0.0061,-0.0056,-0.0039,-0.0019,-0.0019,-0.0019,-0.0012,-0.0009,0.001,0.0011,-0.0001,0.0,0.0091,0.0093,0.0095,0.006,0,0,0,0,0,0,-0.02,-0.0188,-0.0158,-0.0129,-0.0112,-0.0051,-0.0059,-0.0053,-0.0016,-0.0017,-0.0007,-0.0007,-0.0013,0.0008,0.0012,0.0013,0.0002,0.0089,0.0092,0.0094,0.0059,0.0061,0.0062,0,0,0,0,0,-0.0206,-0.0172,-0.0158,-0.0144,-0.0082,-0.0049,-0.0039,-0.0015,-0.0014,-0.0005,0.0,-0.0007,0.0029,0.001,0.0015,0.0017,0.0087,0.0091,0.0094,0.0059,0.0061,0.0062,0,0,0,0,0,0,-0.0212,-0.0168,-0.0153,-0.0107,-0.0077,-0.0048,-0.0012,-0.0005,0.001,0.0002,0.0009,0.0009,0.0026,0.0041,0.0021,0.0059,0.0059,0.0064,0.0031,0.0033,0.0034,0.0024,0.0003,0,0,0,0,0,-0.0195,-0.0156,-0.0126,-0.0081,-0.0069,-0.0039,-0.001,-0.0012,0.0003,0.0008,0.0024,0.0039,0.0047,0.0053,0.0068,0.0092,0.0086,0.0101,0.0103,0.0103,0.0103,0.0089,0.0088,0.0106,0.0106,0.0106,0,0,-0.019,-0.0145,-0.0129,-0.0076,-0.005,-0.0029,-0.0029,-0.0003,0.0009,0.0009,0.004,0.0044,0.0056,0.007,0.0081,0.0079,0.0098,0.0108,0.0107,0.0107,0.0092,0.009,0.0088,0.0109,0.0108,0.0108,0,0,-0.0151,-0.012,-0.0081,-0.0059,-0.0013,-0.0005,0.0002,0.0024,0.0026,0.0055,0.005,0.0058,0.0096,0.009,0.0094,0.0122,0.0104,0.0133,0.0126,0.0113,0.011,0.0107,0.0095,0.0092,0.0133,0.0133,0.0133,0,-0.0137,-0.0087,-0.0063,-0.0023,-0.0002,0.0003,0.0018,0.0029,0.0057,0.005,0.0062,0.0088,0.0104,0.0095,0.0104,0.0121,0.0108,0.0108,0.011,0.0107,0.0105,0.0093,0.0089,0.0131,0.0132,0.0132,0.0132,0,-0.0085,-0.0042,-0.0019,0.0028,0.0044,0.0059,0.0061,0.0068,0.0076,0.0077,0.0077,0.0092,0.01,0.0111,0.0118,0.0109,0.0103,0.0106,0.0092,0.01,0.0088,0.0085,0.013,0.013,0.0131,0.0131,0,0,-0.0082,0.0001,0.0007,0.003,0.006,0.0067,0.0077,0.0074,0.0061,0.0084,0.0074,0.0097,0.0085,0.0092,0.0092,0.0088,0.0071,0.0091,0.0091,0.0055,0.0032,-0.0011,-0.0018,0.0059,0.0059,0.0059,0.0027,0,-0.005,0.0027,0.005,0.0088,0.011,0.0099,0.0103,0.0091,0.0083,0.0076,0.0065,0.0064,0.0082,0.0073,0.0071,0.0071,0.0062,0.0079,0.0051,0.005,-0.0009,-0.0023,0.0089,0.0066,0.0024,0.0023,0.0023,0,-0.0017,0.0033,0.0081,0.0105,0.0105,0.0116,0.0087,0.009,0.0061,0.005,0.003,0.0023,0.0019,0.0038,0.0026,0.003,0.0032,0.0034,0.0033,0.0002,0.0002,0.0056,0.0062,0.0017,0.0018,0.0018,0.0019,0,-0.0023,0.0041,0.0081,0.0093,0.0121,0.0114,0.0108,0.0077,0.0057,0.0028,0.0007,-0.0009,-0.0016,-0.0017,-0.001,0.0004,-0.003,-0.0008,-0.0049,-0.0051,0.0045,0.0051,-0.0021,-0.0021,-0.0021,-0.0021,-0.0021,0,0.0002,0.0028,0.008,0.0102,0.0097,0.0109,0.0082,0.0064,0.0033,0.0004,-0.0009,-0.0037,-0.003,-0.005,-0.0036,-0.0064,-0.0053,-0.0059,-0.0068,0.0037,0.0042,0.0007,0.0011,-0.0022,-0.0022,-0.0021,-0.0021,0,-0.0005,0.0043,0.0078,0.0106,0.0104,0.0093,0.0069,0.0041,0.0019,-0.0018,-0.0027,-0.006,-0.0087,-0.0097,-0.0103,-0.0104,-0.0118,-0.013,-0.0014,-0.001,-0.0119,-0.0116,-0.0172,-0.0173,-0.0175,-0.0176,-0.0178,0,0.0002,0.0032,0.0067,0.0065,0.0079,0.0067,0.0044,0.0029,0.0005,-0.0033,-0.0053,-0.0094,-0.0119,-0.0167,-0.0166,-0.0179,-0.0175,-0.0102,-0.0053,-0.0134,-0.0137,-0.0132,-0.0127,0.0074,0.0075,0.0076,0.0077,0,-0.0004,0.0014,0.0035,0.0039,0.0029,0.0018,-0.0001,-0.0016,-0.0034,-0.0054,-0.0081,-0.01,-0.0143,-0.0118,-0.0162,-0.0144,-0.0092,-0.0091,-0.0197,0.0074,0.0089,0.0088,0.0087,0.0084,0.0084,0.0083,0.0083,0.0082,-0.0031,-0.0029,-0.0002,-0.0004,-0.0013,-0.0024,-0.0027,-0.0047,-0.0066,-0.0075,-0.0094,-0.0082,-0.0095,-0.0111,-0.0106,-0.0074,-0.0108,-0.0041,-0.0039,-0.0039,-0.0026,-0.0018,-0.0039,-0.004,-0.0041,-0.0042,-0.0043,0,-0.0074,-0.0058,-0.0055,-0.0047,-0.0052,-0.0045,-0.0055,-0.0045,-0.0051,-0.005,-0.0058,-0.0014,-0.0004,0.0001,0.0066,0.0039,0.0092,0.0063,0.0169,0.0162,0.0156,0.0183,0.0224,0.0224,0.0224,0.0224,0,0,-0.0095,-0.0095,-0.0079,-0.008,-0.0071,-0.0055,-0.0045,-0.003,-0.0008,0.0017,0.0059,0.0002,0.0029,0.0103,0.0119,0.0197,0.0182,0.0214,0.0014,0.0135,0.0129,0.012,0.0155,0,0,0,0,0]}],[{"header":{"parameterUnit":"m.s-1","parameterCategory":2,"la1":30.2991,"la2":30.254,"lo1":-89.0895,"lo2":-89.0444,"dy":0.0017,"dx":0.0017,"nx":28,"ny":28,"refTime":"2023-04-28T21:00:00:Z","depth":"4","parameterNumber":2,"parameterNumberName":"U-component_of_CURRENTS"},"data":[0,0,0,0,0,0,0,0,0,0,0,0,0,0,0,0,0,0,0,0,0,0,0,0,0,0,0,0,0,0,0,0,0,0,0,0,0,0,0,0,0,0,0,0,0,0,0,0,0,0,0,0,0,0,0,0,0,0,-0.0895,-0.0895,0,-0.0984,-0.0986,-0.0987,-0.1103,-0.1104,-0.1105,-0.1106,-0.1447,-0.1454,-0.1462,0,0,0,0,0,0,0,0,0,0,0,0,0,-0.0904,-0.0904,-0.0895,-0.0895,-0.0896,-0.0984,-0.0986,-0.0988,-0.1103,-0.1104,-0.1105,-0.1107,-0.1444,-0.1453,-0.1463,0,0,0,0,0,0,0,0,0,0,0,0,0,-0.0945,-0.0903,-0.0895,-0.0957,-0.0963,-0.0983,-0.0986,-0.0988,-0.1102,-0.1104,-0.1106,-0.1107,-0.1441,-0.1453,-0.1464,-0.1505,0,0,-0.1501,-0.1506,0,0,0,0,0,0,0,0,-0.0942,-0.0945,-0.0948,-0.0953,-0.096,-0.1027,-0.1114,-0.1171,-0.1102,-0.1058,-0.1106,-0.1108,-0.1323,-0.1345,-0.1366,-0.1521,-0.1535,-0.1502,-0.151,-0.1515,-0.1518,0,0,0,0,0,0,0,-0.0939,-0.0943,-0.0939,-0.0948,-0.0955,-0.1008,-0.1016,-0.1125,-0.1191,-0.1062,-0.1069,-0.1065,-0.133,-0.1354,-0.1375,-0.154,-0.1502,-0.1513,-0.152,-0.1525,-0.2043,-0.205,0,0,0,0,0,0,-0.0905,-0.0939,-0.0936,-0.094,-0.0946,-0.1005,-0.1015,-0.101,-0.1185,-0.1208,-0.1063,-0.107,-0.1332,-0.1361,-0.1388,-0.1695,-0.1515,-0.1526,-0.1533,-0.2037,-0.2045,-0.2052,0,0,0,0,0,0,-0.0905,-0.0904,-0.0932,-0.0936,-0.0942,-0.1002,-0.0997,-0.1011,-0.1067,-0.1181,-0.1212,-0.1108,-0.1335,-0.1371,-0.1515,-0.17,-0.1531,-0.1542,-0.2029,-0.2039,-0.2048,-0.2151,0,0,0,0,0,0,-0.0905,-0.0904,-0.0902,-0.0933,-0.094,-0.0956,-0.0995,-0.1011,-0.1056,-0.1067,-0.1229,-0.126,-0.1339,-0.1496,-0.1526,-0.1713,-0.1552,-0.2021,-0.2034,-0.2045,-0.2139,-0.2163,-0.2183,0,0,0,0,0,-0.0905,-0.09,-0.0901,-0.0901,-0.0931,-0.0955,-0.0965,-0.102,-0.1057,-0.1079,-0.1197,-0.1257,-0.1601,-0.1507,-0.1543,-0.1738,-0.2015,-0.203,-0.2044,-0.2129,-0.2158,-0.2183,0,0,0,0,0,0,-0.0911,-0.0911,-0.0913,-0.091,-0.093,-0.0972,-0.1,-0.103,-0.1135,-0.1191,-0.1284,-0.1323,-0.1553,-0.1604,-0.1499,-0.193,-0.1843,-0.1865,-0.1896,-0.1924,-0.1946,-0.1821,-0.1562,0,0,0,0,0,-0.09,-0.0895,-0.0906,-0.0903,-0.0918,-0.0961,-0.0983,-0.1038,-0.1119,-0.1167,-0.1313,-0.148,-0.1636,-0.1732,-0.1886,-0.2064,-0.1992,-0.2235,-0.2257,-0.2274,-0.2202,-0.2217,-0.2229,-0.21,-0.21,-0.21,0,0,-0.0906,-0.0897,-0.09,-0.0903,-0.0933,-0.0963,-0.0984,-0.1051,-0.1137,-0.1195,-0.1415,-0.1562,-0.1698,-0.1936,-0.2048,-0.2001,-0.2286,-0.2293,-0.2307,-0.2222,-0.2233,-0.2244,-0.2253,-0.211,-0.2109,-0.2107,0,0,-0.0906,-0.0906,-0.0908,-0.0926,-0.097,-0.0999,-0.1017,-0.1132,-0.1248,-0.1448,-0.1536,-0.1739,-0.2017,-0.2132,-0.2218,-0.2437,-0.2402,-0.2564,-0.2576,-0.2596,-0.2603,-0.2607,-0.2547,-0.2545,-0.2575,-0.2575,-0.2575,0,-0.091,-0.0907,-0.0915,-0.0928,-0.0951,-0.1011,-0.1047,-0.1158,-0.1336,-0.1493,-0.1559,-0.1996,-0.2111,-0.2326,-0.24,-0.249,-0.2434,-0.2458,-0.2612,-0.2615,-0.2618,-0.2554,-0.2551,-0.2582,-0.2581,-0.258,-0.258,0,-0.0914,-0.0926,-0.0937,-0.0959,-0.0988,-0.1041,-0.1156,-0.1299,-0.1487,-0.1676,-0.2026,-0.2183,-0.241,-0.255,-0.2525,-0.2667,-0.2599,-0.2629,-0.251,-0.2635,-0.2564,-0.2558,-0.2592,-0.2589,-0.2587,-0.2585,0,0,-0.0886,-0.093,-0.0938,-0.0954,-0.1026,-0.105,-0.1213,-0.1409,-0.1561,-0.1902,-0.213,-0.2443,-0.2565,-0.265,-0.2714,-0.2727,-0.2713,-0.2653,-0.2651,-0.2527,-0.2669,-0.2366,-0.233,-0.2749,-0.2749,-0.2749,-0.2611,0,-0.089,-0.0914,-0.0945,-0.0992,-0.1015,-0.1119,-0.1225,-0.1445,-0.1718,-0.1982,-0.2283,-0.2544,-0.2595,-0.2693,-0.2725,-0.2708,-0.2699,-0.2741,-0.2617,-0.2611,-0.2275,-0.2315,-0.2749,-0.2606,-0.2604,-0.2603,-0.2602,0,-0.088,-0.0897,-0.0944,-0.1002,-0.1023,-0.1063,-0.1258,-0.1389,-0.1766,-0.2032,-0.2358,-0.2553,-0.2686,-0.2692,-0.2708,-0.2718,-0.2658,-0.2647,-0.2644,-0.229,-0.2296,-0.2461,-0.259,-0.2591,-0.2592,-0.2593,-0.2594,0,-0.0836,-0.0892,-0.0928,-0.0952,-0.1032,-0.1099,-0.1159,-0.1456,-0.1593,-0.2042,-0.2208,-0.2502,-0.2579,-0.2607,-0.2538,-0.2625,-0.2457,-0.2618,-0.2308,-0.2286,-0.2549,-0.2545,-0.258,-0.258,-0.2581,-0.2581,-0.2582,0,-0.0809,-0.0839,-0.0911,-0.0928,-0.0973,-0.1053,-0.118,-0.1366,-0.1594,-0.1766,-0.2173,-0.2236,-0.2536,-0.2493,-0.2484,-0.2278,-0.242,-0.2237,-0.2216,-0.2607,-0.2611,-0.2544,-0.2541,-0.2576,-0.2577,-0.2578,-0.2579,0,-0.076,-0.0812,-0.0844,-0.0926,-0.0949,-0.0988,-0.1074,-0.1186,-0.1423,-0.1602,-0.1711,-0.2,-0.1979,-0.2124,-0.2126,-0.2131,-0.2035,-0.1917,-0.2197,-0.2205,-0.1894,-0.1901,-0.1673,-0.1661,-0.165,-0.1642,-0.1635,0,-0.0736,-0.075,-0.0819,-0.0837,-0.0874,-0.0934,-0.0974,-0.114,-0.1247,-0.138,-0.1431,-0.1474,-0.1656,-0.1448,-0.1594,-0.1591,-0.1593,-0.1588,-0.1872,-0.179,-0.1795,-0.1818,-0.1838,-0.1618,-0.1616,-0.1613,-0.161,0,-0.069,-0.0726,-0.0757,-0.0782,-0.0816,-0.0844,-0.09,-0.0904,-0.1071,-0.1216,-0.1185,-0.1218,-0.1162,-0.1257,-0.1203,-0.1209,-0.1658,-0.1485,-0.1514,-0.1782,-0.1722,-0.1742,-0.1774,-0.1574,-0.158,-0.1583,-0.1585,0,-0.0662,-0.0669,-0.0711,-0.0727,-0.0755,-0.0757,-0.079,-0.0814,-0.0853,-0.0998,-0.0885,-0.0966,-0.1056,-0.1025,-0.0925,-0.0942,-0.1066,-0.1203,-0.1251,-0.1292,-0.1235,-0.1108,-0.0687,0,0,0,0,0,-0.063,-0.064,-0.065,-0.0662,-0.068,-0.0696,-0.0748,-0.0791,-0.0854,-0.0809,-0.0862,-0.0806,-0.077,-0.0763,-0.0726,-0.0778,-0.1068,-0.0735,-0.1252,-0.1376,-0.1418,-0.139,0,0,0,0,0,0,-0.0618,-0.0638,-0.0636,-0.0602,-0.0592,-0.0608,-0.0636,-0.068,-0.0671,-0.0734,-0.071,-0.0766,-0.073,-0.0767,-0.0705,-0.0709,-0.1028,-0.0747,-0.0746,-0.1353,-0.139,-0.1424,-0.141,0,0,0,0,0]},{"header":{"parameterUnit":"m.s-1","parameterCategory":2,"la1":30.2991,"la2":30.254,"lo1":-89.0895,"lo2":-89.0444,"dy":0.0017,"dx":0.0017,"nx":28,"ny":28,"refTime":"2023-04-28T21:00:00:Z","depth":"4","parameterNumber":3,"parameterNumberName":"V-component_of_CURRENTS"},"data":[0,0,0,0,0,0,0,0,0,0,0,0,0,0,0,0,0,0,0,0,0,0,0,0,0,0,0,0,0,0,0,0,0,0,0,0,0,0,0,0,0,0,0,0,0,0,0,0,0,0,0,0,0,0,0,0,0,0,-0.0003,-0.0004,0,-0.0014,-0.0014,-0.0014,0.0049,0.0051,0.0052,0.0054,0.0097,0.0097,0.0096,0,0,0,0,0,0,0,0,0,0,0,0,0,0.0118,0.0115,-0.0003,-0.0004,-0.0004,-0.0015,-0.0014,-0.0014,0.0049,0.0051,0.0053,0.0054,0.0097,0.0097,0.0096,0,0,0,0,0,0,0,0,0,0,0,0,0,0.0084,0.0114,-0.0003,0.0024,0.0026,-0.0015,-0.0014,-0.0014,0.0048,0.0051,0.0053,0.0055,0.0097,0.0097,0.0096,0.0047,0,0,0.0095,0.0095,0,0,0,0,0,0,0,0,0.0086,0.008,0.002,0.0022,0.0024,0.0019,0.0044,0.0008,0.0048,0.0043,0.0054,0.0056,0.0072,0.0074,0.007,0.0049,0.0051,0.0095,0.0095,0.0094,0.0094,0,0,0,0,0,0,0,0.0088,0.0081,-0.0005,0.002,0.0022,0.0052,0.005,0.0038,0.0048,0.0043,0.0047,0.0041,0.0075,0.007,0.0071,0.0051,0.0095,0.0095,0.0094,0.0094,0.0161,0.0163,0,0,0,0,0,0,0.0078,0.0082,-0.0005,-0.0006,0.0059,0.0048,0.0045,0.002,0.0047,0.0052,0.0039,0.0044,0.007,0.0072,0.0073,0.016,0.0094,0.0094,0.0094,0.0159,0.0162,0.0164,0,0,0,0,0,0,0.0081,0.007,-0.0004,0.0038,0.003,0.0043,0.0014,0.0019,0.0027,0.0042,0.005,0.0044,0.0072,0.0074,0.0061,0.0157,0.0094,0.0093,0.0157,0.016,0.0163,0.0242,0,0,0,0,0,0,0.0084,0.007,0.0051,0.0036,0.0027,-0.0025,0.0012,0.0017,0.0017,0.0024,0.0048,0.0054,0.0074,0.0061,0.0061,0.0155,0.0093,0.0154,0.0158,0.0162,0.0237,0.0247,0.0256,0,0,0,0,0,0.0088,0.0055,0.005,0.004,-0.0001,-0.0026,-0.0028,-0.0008,0.0015,0.0011,0.0023,0.0054,0.009,0.0059,0.0059,0.0157,0.0152,0.0157,0.0161,0.0232,0.0245,0.0256,0,0,0,0,0,0,0.0099,0.0057,0.0052,0.0007,-0.0008,-0.0016,-0.0019,-0.0013,-0.0009,0.0014,0.0027,0.0032,0.0074,0.0079,0.0046,0.019,0.0148,0.0152,0.0202,0.0214,0.0224,0.0176,0.0093,0,0,0,0,0,0.0087,0.0051,0.0023,-0.0012,-0.0019,-0.0021,-0.0028,-0.001,-0.0012,-0.0005,0.0017,0.0054,0.0089,0.0115,0.0133,0.017,0.0146,0.025,0.0259,0.0268,0.023,0.0264,0.0273,0.0179,0.0179,0.0179,0,0,0.0084,0.0052,0.0035,-0.0012,-0.0017,-0.0041,-0.0017,-0.0017,-0.0022,-0.0004,0.0012,0.0065,0.0096,0.0162,0.0189,0.0182,0.0286,0.0274,0.0281,0.0237,0.0269,0.0278,0.0286,0.0182,0.0182,0.0181,0,0,0.0065,0.0032,0.0004,-0.0021,-0.0035,-0.004,-0.0043,-0.0035,-0.0012,0.0008,0.0039,0.0111,0.0167,0.0211,0.024,0.0296,0.032,0.0365,0.0396,0.0432,0.0439,0.0445,0.0437,0.0442,0.0392,0.0393,0.0393,0,0.0065,0.0013,-0.0005,-0.004,-0.0065,-0.0045,-0.0072,-0.0062,-0.005,-0.0033,0.0032,0.0157,0.0189,0.0257,0.031,0.0321,0.0331,0.0353,0.0443,0.0448,0.0453,0.0443,0.0447,0.0397,0.0397,0.0396,0.0396,0,0.0027,-0.0016,-0.0033,-0.0081,-0.0107,-0.0123,-0.0124,-0.0116,-0.0053,-0.0012,0.0095,0.0179,0.0259,0.0335,0.0343,0.0428,0.0421,0.0435,0.0408,0.0466,0.0453,0.0456,0.0403,0.0402,0.04,0.0399,0,0,0.003,-0.0045,-0.0049,-0.0087,-0.0128,-0.0153,-0.0169,-0.0172,-0.0174,-0.0028,0.0024,0.0171,0.0274,0.0308,0.039,0.0452,0.0515,0.0477,0.0477,0.0457,0.058,0.0468,0.0459,0.0571,0.0572,0.0573,0.0561,0,0.0009,-0.0056,-0.0095,-0.0161,-0.0199,-0.0221,-0.0253,-0.0243,-0.0185,-0.0127,0.0051,0.0145,0.0251,0.0343,0.0426,0.0472,0.0525,0.0514,0.0532,0.053,0.0416,0.0459,0.0575,0.0562,0.0563,0.0563,0.0563,0,-0.0018,-0.0062,-0.012,-0.0219,-0.0237,-0.0273,-0.0325,-0.0346,-0.0282,-0.0209,-0.005,0.0075,0.0218,0.0312,0.0446,0.0449,0.0508,0.056,0.0561,0.0415,0.0422,0.049,0.0567,0.0567,0.0567,0.0566,0.0566,0,-0.0005,-0.0092,-0.0136,-0.0169,-0.026,-0.0294,-0.0337,-0.0346,-0.0364,-0.0247,-0.0196,0.0003,0.0121,0.0249,0.0364,0.0427,0.0468,0.056,0.0508,0.05,0.0568,0.0561,0.0626,0.0626,0.0626,0.0626,0.0626,0,-0.0032,-0.008,-0.0129,-0.0164,-0.0227,-0.0293,-0.0347,-0.0369,-0.0365,-0.036,-0.0211,-0.0149,0.0117,0.0188,0.0312,0.0378,0.0424,0.0484,0.0488,0.0604,0.0602,0.0569,0.0563,0.0625,0.0625,0.0625,0.0625,0,-0.0035,-0.0064,-0.0126,-0.02,-0.0226,-0.0266,-0.037,-0.0402,-0.0419,-0.0407,-0.0356,-0.0249,-0.0149,0.0011,0.0176,0.0273,0.0355,0.0353,0.0393,0.0404,0.0392,0.039,0.0355,0.0351,0.0347,0.0345,0.0342,0,-0.0052,-0.0074,-0.013,-0.015,-0.0186,-0.0253,-0.0301,-0.0378,-0.0414,-0.0477,-0.0453,-0.0389,-0.0288,-0.0171,-0.0004,0.0162,0.0203,0.0237,0.0405,0.0355,0.0364,0.0368,0.0371,0.0337,0.0336,0.0335,0.0334,0,-0.0081,-0.0077,-0.0112,-0.0134,-0.0175,-0.0247,-0.0323,-0.0363,-0.0447,-0.0475,-0.0507,-0.0433,-0.0367,-0.0194,-0.0125,0.0015,0.0229,0.0205,0.0217,0.0376,0.0333,0.0346,0.0353,0.0322,0.0324,0.0325,0.0325,0,-0.0084,-0.0094,-0.01,-0.013,-0.0168,-0.0223,-0.028,-0.0348,-0.0412,-0.0491,-0.051,-0.0458,-0.0407,-0.0283,-0.0217,-0.011,0.0002,0.0109,0.013,0.0145,0.0093,0.0009,-0.0118,0,0,0,0,0,-0.009,-0.009,-0.0106,-0.0133,-0.0164,-0.0187,-0.0287,-0.0344,-0.0433,-0.0447,-0.0488,-0.0435,-0.0339,-0.0317,-0.0215,-0.0223,0.0033,-0.0101,0.0172,0.0256,0.0269,0.0236,0,0,0,0,0,0,-0.0091,-0.0096,-0.0095,-0.0114,-0.0125,-0.0176,-0.0231,-0.0298,-0.0326,-0.0399,-0.0349,-0.038,-0.0281,-0.0368,-0.0194,-0.0176,0.0015,-0.0073,-0.0071,0.0248,0.026,0.0271,0.0242,0,0,0,0,0]}]]